Home   Weather   Guayaquil   Past weeks

Flag for Ecuador Past Weather in Guayaquil, Ecuador — Yesterday and Last 2 Weeks

Now
75 °F

Partly sunny.


Feels Like: 76 °F
Forecast: 71 / 84 °F
Wind: 5 mph from Southwest

Location: Guayaquil / Simon Bolivar

Current Time: Jul 27, 2017 at 9:55:12 am

Latest Report: Jul 27, 2017 at 9:00 am


Visibility: N/A

Pressure: 29.86 "Hg

Humidity: 78%

Dew Point: 68 °F

Location of GuayaquilLocation

Past Weather in Guayaquil — Graph

°F

Guayaquil Temperature Yesterday

Maximum temperature yesterday: 82 °F (at 2:00 pm)
Minimum temperature yesterday: 68 °F (at 4:00 am)
Average temperature yesterday: 75 °F

High & Low Weather Summary for the Past Weeks

 TemperatureHumidityPressure
High86 °F (Jul 16, 4:00 pm)94% (Jul 18, 4:00 am)29.98 "Hg (Jul 18, 4:00 am)
Low68 °F (Jul 23, 5:00 am)52% (Jul 16, 4:00 pm)29.74 "Hg (Jul 23, 4:00 pm)
Average76 °F76%29.89 "Hg
* Reported Jul 12 9:00 am — Jul 27 9:00 am, Guayaquil. Weather by CustomWeather, © 2017

Note: Actual official high and low records may vary slightly from our data, if they occured in-between our weather recording intervals... More about our weather records

Advertising

Guayaquil Weather History for the Previous 24 Hours

Scroll right to see more
 ConditionsComfort  
Time TempWeatherWind HumidityBarometerVisibility
9:00 am
Thu, Jul 27
75 °FPartly sunny.5 mph78%29.86 "HgN/A
8:00 am72 °FPartly sunny.8 mph88%29.86 "HgN/A
7:00 am70 °FScattered clouds.7 mph88%29.83 "HgN/A
6:00 am70 °FPassing clouds.8 mph88%29.83 "HgN/A
5:00 am72 °FPassing clouds.8 mph83%29.83 "HgN/A
4:00 am70 °FPassing clouds.8 mph88%29.86 "HgN/A
3:00 am72 °FPassing clouds.8 mph83%29.86 "HgN/A
2:00 am72 °FPassing clouds.9 mph83%29.86 "HgN/A
1:00 am72 °FClear.9 mph83%29.86 "Hg10 mi
12:00 am72 °FClear.8 mph83%29.86 "Hg10 mi
11:00 pm
Wed, Jul 26
72 °FClear.9 mph83%29.86 "Hg10 mi
10:00 pm73 °FPassing clouds.13 mph78%29.86 "HgN/A
9:00 pm77 °FPassing clouds.12 mph74%29.86 "HgN/A
8:00 pm77 °FPartly cloudy.10 mph79%29.83 "HgN/A
7:00 pm79 °FPassing clouds.9 mph74%29.83 "HgN/A
6:00 pm81 °FBroken clouds.7 mph70%29.80 "HgN/A
5:00 pm81 °FBroken clouds.6 mph70%29.77 "HgN/A
4:00 pm82 °FScattered clouds.5 mph66%29.77 "HgN/A
3:00 pm82 °FScattered clouds.5 mph66%29.80 "HgN/A
2:00 pm82 °FScattered clouds.6 mph66%29.80 "HgN/A
1:00 pm79 °FPartly sunny.7 mph70%29.83 "HgN/A
12:00 pm79 °FPartly sunny.5 mph70%29.86 "HgN/A
11:00 am77 °FPartly sunny.3 mph74%29.89 "HgN/A
10:00 am77 °FPartly sunny.2 mph74%29.89 "HgN/A
9:00 am73 °FPartly sunny.5 mph78%29.89 "HgN/A
Weather by CustomWeather, © 2017

See weather overviewHow to use our weather pages